Tracking 19176 objects as of 26-May-2018
HD Live streaming from Space Station
objects crossing your sky now

ARIANE 44L R/B

Track ARIANE 44L R/B now!


NORAD ID: 26696
Int'l Code: 2001-005C
Perigee: 291.4 km
Apogee: 32,093.0 km
Inclination: 7.3 °
Period: 562.2 minutes
Semi major axis: 22563 km
RCS: 23.3181 m2 (large)
Launch date: February 7, 2001
Source: France (FR)
Launch site: FRENCH GUIANA (FRGUI)

Note: This is a ROCKET BODY
aabbcc
Your satellite tracking list
Your tracking list is empty




NASA's NSSDC Master Catalog

Two Line Element Set (TLE):
1 26696U 01005C   18145.37559690  .00000678  00000-0  39358-3 0  9990
2 26696   7.3162  52.1731 7047231 227.2185  46.5766  2.56154552152030
Source of the keplerian elements: AFSPC